Regional Weather Roundup
Issued by NWS Sterling, VA

Home | Current Version | Previous Version | Text Only | Print | Product List | Glossary Off
Versions: 1 2 3 4 5 6 7 8 9 10 11 12 13 14 15 16 17 18 19 20 21 22 23 24 25 26 27 28 29 30 31 32 33 34 35 36 37 38 39 40 41 42 43 44 45 46 47 48 49 50

000
ASUS41 KLWX 281710
RWRLWX

REGIONAL WEATHER ROUNDUP
NATIONAL WEATHER SERVICE BALTIMORE MD/WASHINGTON DC
100 PM EDT SAT MAY 28 2016

Note: "FAIR" indicates few or no clouds below 12,000 feet
with no significant weather and/or obstructions to visibility.
 TC=TEMPERATURE CELSIUS

 * =Non NWS site. Station does not report precipitation (e.g. rain,
    snow, etc.), thunder, or fog.

DCZ001-MDZ009-015-VAZ040>042-051-053>054-281800-
WASHINGTON METRO

CITY           SKY/WX    TMP DP  RH WIND       PRES   REMARKS
WASHINGTON NAT FAIR      84  70  62 S10       30.15F
DULLES         FAIR      86  67  52 S8        30.14F
ANDREWS AFB    MOSUNNY   86  67  52 S12       30.15F
FT BELVOIR     FAIR      85  68  56 VRB6      30.14F
QUANTICO       FAIR      82  71  69 S9        30.15F
COLLEGE PARK*  FAIR      84  66  54 SW5       30.14F
LEESBURG*      FAIR      90  72  55 S8        30.15F HX  96
MANASSAS*      SUNNY     88  70  55 S7        30.14F HX  92

$$

MDZ006>007-011-014-281800-
BALTIMORE METRO

CITY           SKY/WX    TMP DP  RH WIND       PRES   REMARKS
BWI AIRPORT    MOSUNNY   86  66  51 S8        30.14F
MD SCIENCE CTR   N/A     84  67  56 MISG      30.15F
MARTIN STATE   SUNNY     81  70  69 SE9       30.17F
ANNAPOLIS      SUNNY     79  67  66 SE9       30.16F
FORT MEADE*    SUNNY     86  66  51 SW9       30.16F

$$

MDZ012-015-019>023-281800-
MARYLAND EASTERN SHORE

CITY           SKY/WX    TMP DP  RH WIND       PRES   REMARKS
OCEAN CITY     SUNNY     73  63  70 S12       30.21R
SALISBURY      SUNNY     84  64  50 S6        30.18F
BAY BRIDGE AP* SUNNY     82  64  54 S10       30.16F
CAMBRIDGE*     SUNNY     81  64  57 SE8       30.18S

$$

MDZ017>025-281800-
SOUTHERN MARYLAND

CITY           SKY/WX    TMP DP  RH WIND       PRES   REMARKS
PATUXENT RIVER SUNNY     77  66  68 SE13      30.18S
ST INIGOES     SUNNY     83  65  54 S8        30.18F
LEONARDTOWN*   SUNNY     82  63  51 S6        30.19F

$$

MDZ003>005-281800-
NORTH CENTRAL MARYLAND

CITY           SKY/WX    TMP DP  RH WIND       PRES   REMARKS
FREDERICK*     SUNNY     86  72  62 CALM      30.17F HX  92
HAGERSTOWN APT SUNNY     85  67  54 SW7       30.14F
WESTMINSTER*   MOSUNNY   88  82  84 S7        30.16F HX 108

$$

MDZ501>502-281800-
WESTERN MARYLAND

CITY           SKY/WX    TMP DP  RH WIND       PRES   REMARKS
OAKLAND*       NOT AVBL
CUMBERLAND*    SUNNY     84  72  65 CALM      30.18F

$$

VAZ025>031-281800-
SHENANDOAH VALLEY

CITY           SKY/WX    TMP DP  RH WIND       PRES   REMARKS
WINCHESTER*    FAIR      86  66  51 CALM      30.15F
FRONT ROYAL*   FAIR      86  70  58 SE3       30.14F HX  90
LURAY*         FAIR      86  64  48 SE6       30.16F
NEW MARKET*    FAIR      86  65  49 S9        30.14F
STAUNTON*      FAIR      82  61  47 SW3       30.20F
WAYNESBORO*    FAIR      82  62  50 SE7       30.21S

$$

WVZ021-048>050-054>055-281800-
EASTERN WEST VIRGINIA PANHANDLE

CITY           SKY/WX    TMP DP  RH WIND       PRES   REMARKS
MARTINSBURG    FAIR      87  67  51 VRB6      30.13F HX  90
PETERSBURG*    FAIR      87  68  52 S5        30.16F HX  90

$$

VAZ036>039-050-281800-
CENTRAL FOOTHILLS

CITY           SKY/WX    TMP DP  RH WIND       PRES   REMARKS
CHARLOTTESVILL FAIR      86  63  45 SE10      30.17S
CULPEPER*      FAIR      87  69  55 S6        30.15F HX  91
ORANGE*        FAIR      86  64  48 SW5       30.18S
GORDONSVILLE*  FAIR      86  64  47 CALM      30.16S
WARRENTON*     FAIR      88  62  42 S8        30.15F

$$

VAZ055>057-281800-
NORTH AND CENTRAL PIEDMONT

CITY           SKY/WX    TMP DP  RH WIND       PRES   REMARKS
FREDERICKSBRG* FAIR      87  68  52 SW9       30.15F HX  90
STAFFORD*      FAIR      85  65  50 SE6       30.19F

$$

NCZ024-NYZ072-PAZ021-071-VAZ022-071-281800-
OTHER REGIONAL OBSERVATIONS

CITY           SKY/WX    TMP DP  RH WIND       PRES   REMARKS
NEW YORK CITY  SUNNY     89  65  44 VRB5      30.13F HX  91
PHILADELPHIA   SUNNY     85  66  53 SW9       30.15F
PITTSBURGH     MOSUNNY   84  64  50 SW6       30.15S
ROANOKE        PTSUNNY   82  60  47 SE7       30.21F
RICHMOND       FAIR      83  62  49 S6        30.18F
RALEIGH        PTSUNNY   83  59  44 CALM      30.20S

$$

ANZ530>537-281800-
MARINE OBSERVATIONS

STATION/POSITION TIME  TEMP    WIND        PRES
                       AIR SEA DIR/SP/G
                 (UTC) (F)     (DEG/KT/KT) (MB)
THOMAS PT LIGHT  1700   73 68  180/ 10/ 10 1022.6F
BALT KEY BRIDGE  1600   75     110/ 12/ 13 1021.1S
COVE POINT       1600   68     190/ 11/ 13 1022.9R
LEWISETTA        1600   80 65  180/  5/  6 1022.0R
SOLOMONS ISLAND  1600   74 65  130/  9/ 11   N/A
PINEY POINT      1600          140/  8/  8   N/A

$$




USA.gov is the U.S. government's official web portal to all federal, state and local government web resources and services.